7 * 24
多渠道服务支持
SAOCOM 1-B是阿根廷研制的L波段合成孔径雷达卫星,于北京时间2020年8月30日由SpaceX猎鹰9号火箭从卡纳维拉尔角发射升空。该卫星历经18年规划、8年建造,多次因疫情、技术和天气推迟发射。它与SAOCOM 1-A组网,用于灾害监测、农业评估、冰川研究等,标志阿根廷跻身少数掌握空间雷达技术的国家。
阿根廷
(AR)
| 数据来源 | 国际轨道数据 | AOE轨道数据 |
| 星历时间 | 2026-09-11T15:27:25+0800 12小时前 查看轨道信息 | 2026-09-10T22:00:00+0800 1天前 查看轨道信息 |
| 半长轴 | 7000.643km | 7000.64km |
| 偏心率 | 0.0001496 | 0.0001437 |
| 轨道倾角 | 97.890° | 97.890° |
| 近地点辐角 | 82.492° | 85.163° |
| 升交点赤经 | 78.922° | 78.205° |
| 平近点角 | 277.647° | 356.244° |
| 近地点 | 621.458km | 621.497km |
| 远地点 | 623.554km | 623.509km |
| 周期 | 97.155分钟 | 97.155分钟 |
| 每日圈数 | 14.821629 | 14.821638 |